EW7835 Weather Reports


Display with metric or nautical units.
time (UTC)temp
F
wind
direction
speed
MPH
gust
MPH
rain 1hr
in
rain 24hr
in
rain mn
in
humidity
%
barometer
mb
20260509011554 45 0.0 0.0 0.00 0.00 0.00 59 1008.2
20260509010052 45 0.0 0.0 0.00 0.00 0.00 58 1008.0
20260509004524 46 0.0 0.0 0.00 0.00 0.00 56 1007.7
20260509003021 47 0.0 0.0 0.00 0.00 0.00 55 1007.5
20260509001517 47 0.0 0.0 0.00 0.00 0.00 54 1007.3
20260509000016 48 0.0 0.0 0.00 0.00 0.00 52 1007.2
20260508234517 49 0.0 0.0 0.00 0.00 0.00 50 1007.2
20260508233015 49 0.0 0.0 0.00 0.00 0.00 49 1007.1
20260508231513 50 0.0 0.0 0.00 0.00 0.00 47 1007.0
20260508230034 51 0.0 0.0 0.00 0.00 0.00 48 1006.9
20260508224536 51 0.0 0.0 0.00 0.00 0.00 47 1006.8
20260508223023 50 0.0 0.0 0.00 0.00 0.00 49 1006.8
20260508221509 51 0.0 0.0 0.00 0.00 0.00 48 1006.7
20260508220008 52 0.0 0.0 0.00 0.00 0.00 46 1006.6
20260508214507 51 0.0 0.0 0.00 0.00 0.00 50 1006.6
20260508213008 50 0.0 0.0 0.00 0.00 0.00 54 1006.8
20260508211509 50 0.0 0.0 0.00 0.00 0.00 54 1006.9
20260508210005 51 0.0 0.0 0.00 0.00 0.00 53 1006.6
20260508204513 50 0.0 0.0 0.00 0.00 0.00 55 1006.8
20260508203004 50 0.0 0.0 0.00 0.00 0.00 55 1006.6
20260508201502 50 0.0 0.0 0.00 0.00 0.00 56 1006.5
20260508200001 52 0.0 0.0 0.00 0.00 0.00 55 1006.6
20260508194559 51 0.0 0.0 0.00 0.00 0.00 55 1006.7
20260508193131 51 0.0 0.0 0.00 0.00 0.00 55 1006.6
20260508191556 50 0.0 0.0 0.00 0.00 0.00 56 1006.6
20260508190058 50 0.0 0.0 0.00 0.00 0.00 53 1006.7
20260508184622 51 0.0 0.0 0.00 0.00 0.00 54 1006.8
20260508183058 50 0.0 0.0 0.00 0.00 0.00 56 1006.9
20260508181550 50 0.0 0.0 0.00 0.00 0.00 56 1006.9
20260508180057 50 0.0 0.0 0.00 0.00 0.00 58 1006.8
20260508174603 48 0.0 0.0 0.00 0.00 0.00 60 1007.0
20260508173045 48 0.0 0.0 0.00 0.00 0.00 60 1007.1
20260508171607 49 0.0 0.0 0.00 0.00 0.00 56 1007.2
20260508170042 48 0.0 0.0 0.00 0.00 0.00 58 1007.4
20260508164541 48 0.0 0.0 0.00 0.00 0.00 57 1007.3
20260508163039 48 0.0 0.0 0.00 0.00 0.00 54 1007.3
20260508161544 48 0.0 0.0 0.00 0.00 0.00 54 1007.3
20260508160038 48 0.0 0.0 0.00 0.00 0.00 53 1007.3
20260508154533 48 0.0 0.0 0.00 0.00 0.00 55 1007.4
20260508153038 48 0.0 0.0 0.00 0.00 0.00 54 1007.3
20260508151541 47 0.0 0.0 0.00 0.00 0.00 56 1007.1
20260508150030 48 0.0 0.0 0.00 0.00 0.00 54 1007.1
20260508144529 48 0.0 0.0 0.00 0.00 0.00 53 1007.1
20260508143029 47 0.0 0.0 0.00 0.00 0.00 55 1007.0
20260508141527 48 0.0 0.0 0.00 0.00 0.00 53 1007.0
20260508140023 47 0.0 0.0 0.00 0.00 0.00 55 1006.9
20260508134520 46 0.0 0.0 0.00 0.00 0.00 56 1007.1
20260508133018 46 0.0 0.0 0.00 0.00 0.00 57 1007.2
20260508131517 46 0.0 0.0 0.00 0.00 0.00 58 1007.3
20260508130013 45 0.0 0.0 0.00 0.00 0.00 57 1007.5
20260508124516 44 0.0 0.0 0.00 0.00 0.00 55 1007.6
20260508123012 44 0.0 0.0 0.00 0.00 0.00 51 1007.5
20260508121507 43 0.0 0.0 0.00 0.00 0.00 47 1007.5
20260508120002 42 0.0 0.0 0.00 0.00 0.00 40 1007.5
20260508114607 42 0.0 0.0 0.00 0.00 0.00 35 1007.6
20260508113105 40 0.0 0.0 0.00 0.00 0.00 33 1007.6
20260508111600 40 0.0 0.0 0.00 0.00 0.00 32 1007.5
20260508110022 40 0.0 0.0 0.00 0.00 0.00 37 1007.3
20260508104518 40 0.0 0.0 0.00 0.00 0.00 43 1007.1
20260508103014 40 0.0 0.0 0.00 0.00 0.00 49 1007.1
20260508101514 40 0.0 0.0 0.00 0.00 0.00 54 1007.0
20260508100010 41 0.0 0.0 0.00 0.00 0.00 57 1007.0
20260508094508 41 0.0 0.0 0.00 0.00 0.00 59 1006.8
20260508093037 41 0.0 0.0 0.00 0.00 0.00 60 1006.7
20260508091602 41 0.0 0.0 0.00 0.00 0.00 61 1006.4
20260508090030 41 0.0 0.0 0.00 0.00 0.00 61 1006.2
20260508084532 41 0.0 0.0 0.00 0.00 0.00 61 1006.2
20260508083032 40 0.0 0.0 0.00 0.00 0.00 60 1006.0
20260508081521 40 0.0 0.0 0.00 0.00 0.00 61 1005.9
20260508080014 40 0.0 0.0 0.00 0.00 0.00 61 1005.9
20260508074509 39 0.0 0.0 0.00 0.00 0.00 61 1005.8
20260508073005 39 0.0 0.0 0.00 0.00 0.00 60 1005.7
20260508071503 39 0.0 0.0 0.00 0.00 0.00 61 1005.7
20260508070027 39 0.0 0.0 0.00 0.00 0.00 61 1005.7
20260508064531 39 0.0 0.0 0.00 0.00 0.00 61 1005.7
20260508063120 39 0.0 0.0 0.00 0.00 0.00 62 1005.8
20260508061544 39 0.0 0.0 0.00 0.00 0.00 62 1005.7
20260508060037 38 0.0 0.0 0.00 0.00 0.00 63 1005.9
20260508054533 38 0.0 0.0 0.00 0.00 0.00 62 1006.1
20260508053042 38 0.0 0.0 0.00 0.00 0.00 62 1006.1
20260508051524 38 0.0 0.0 0.00 0.00 0.00 62 1006.0
20260508050018 39 0.0 0.0 0.00 0.00 0.00 62 1006.1
20260508044513 39 0.0 0.0 0.00 0.00 0.00 61 1006.0
20260508043009 40 0.0 0.0 0.00 0.00 0.00 58 1005.9
20260508041511 41 0.0 0.0 0.00 0.00 0.00 57 1005.8
20260508040106 41 0.0 0.0 0.00 0.00 0.00 58 1005.6
20260508034533 41 0.0 0.0 0.00 0.00 0.00 56 1005.6
20260508033034 42 0.0 0.0 0.00 0.00 0.00 56 1005.8
20260508031556 42 0.0 0.0 0.00 0.00 0.00 57 1005.8
20260508030050 43 0.0 0.0 0.00 0.00 0.00 54 1005.9
20260508024542 43 0.0 0.0 0.00 0.00 0.00 52 1006.0
20260508023038 43 0.0 0.0 0.00 0.00 0.00 54 1005.9
20260508021537 43 0.0 0.0 0.00 0.00 0.00 55 1006.0
20260508020030 43 0.0 0.0 0.00 0.00 0.00 52 1005.8
20260508014523 44 0.0 0.0 0.00 0.00 0.00 50 1005.8
20260508013018 44 0.0 0.0 0.00 0.00 0.00 47 1005.7